Shirley, NY

5:34 PM EST on February 23, 2017 (GMT -0500)
Brookhaven

Weather History for KHWV - March, 2013

Change the Weather History Date:

Wednesday, March 20, 2013

  Actual Average (KISP) Record (KISP)
Temperature  
Mean Temperature 37 °F -  
Max Temperature 45 °F 45 °F 71 °F (2010)
Min Temperature 30 °F 30 °F 19 °F (1992)
Degree Days  
Heating Degree Days 28    
Moisture  
Dew Point 19 °F    
Average Humidity 51    
Maximum Humidity 73    
Minimum Humidity 35    
Precipitation  
Precipitation 0.00 in - - ()
Sea Level Pressure  
Sea Level Pressure 29.84 in    
Wind  
Wind Speed 10 mph (West)    
Max Wind Speed 21 mph    
Max Gust Speed 28 mph    
Visibility 10 miles    
Events      
Averages and records for this station are not official NWS values.
T = Trace of Precipitation, MM = Missing Value Source: NWS Daily Summary

Daily Weather History Graph

Daily Weather History Graph

Search for Another Location

Airport or City:

Trip Planner

Search our weather history database for the weather conditions in past years. The results will help you decide how hot, cold, wet, or windy it might be!

Date:

Astronomy

Mar. 20, 2013 Rise Set
Actual Time 6:54 AM EDT 7:03 PM EDT
Civil Twilight 6:27 AM EDT 7:31 PM EDT
Nautical Twilight 5:55 AM EDT 8:03 PM EDT
Astronomical Twilight 5:22 AM EDT 8:35 PM EDT
Moon 12:34 PM EDT (3/20) 2:34 AM EDT (3/20)
Length of Visible Light 13h 04m
Length of Day
12h 09m
First Quarter, 59% of the Moon is Illuminated
Mar 20
First Quarter
Mar 27
Full
Apr 3
Last Quarter
Apr 10
New
Apr 18
First Quarter

Hourly Weather History & Observations

Time (EDT) Temp. Windchill Dew Point Humidity Pressure Visibility Wind Dir Wind Speed Gust Speed Precip Events Conditions
12:56 AM 36.0 °F 27.5 °F 28.0 °F 73% 29.80 in 10.0 mi West 12.7 mph 17.3 mph N/A   Scattered Clouds
1:56 AM 35.1 °F 26.9 °F 23.0 °F 61% 29.83 in 10.0 mi WNW 11.5 mph - N/A   Clear
2:56 AM 33.1 °F 26.1 °F 21.9 °F 64% 29.83 in 10.0 mi WNW 8.1 mph - N/A   Clear
3:56 AM 33.1 °F 26.9 °F 19.9 °F 59% 29.85 in 10.0 mi West 6.9 mph - N/A   Clear
4:56 AM 32.0 °F 27.5 °F 19.0 °F 59% 29.86 in 10.0 mi West 4.6 mph - N/A   Clear
5:56 AM 30.9 °F 24.3 °F 19.9 °F 64% 29.87 in 10.0 mi West 6.9 mph - N/A   Clear
6:56 AM 30.9 °F 23.5 °F 19.0 °F 61% 29.88 in 10.0 mi West 8.1 mph - N/A   Clear
7:56 AM 33.1 °F 24.4 °F 19.0 °F 56% 29.87 in 10.0 mi West 11.5 mph - N/A   Clear
8:56 AM 36.0 °F 26.7 °F 18.0 °F 48% 29.87 in 10.0 mi WNW 15.0 mph 24.2 mph N/A   Clear
9:56 AM 37.0 °F 27.4 °F 18.0 °F 46% 29.86 in 10.0 mi WNW 17.3 mph 25.3 mph N/A   Clear
10:56 AM 39.0 °F 29.0 °F 19.0 °F 45% 29.87 in 10.0 mi WNW 20.7 mph 27.6 mph N/A   Scattered Clouds
11:56 AM 41.0 °F 32.5 °F 18.0 °F 40% 29.87 in - West 17.3 mph 24.2 mph N/A   Unknown
12:56 PM 42.1 °F 35.2 °F 18.0 °F 38% 29.85 in 10.0 mi West 12.7 mph 26.5 mph N/A   Clear
1:56 PM 43.0 °F 36.8 °F 18.0 °F 37% 29.83 in 10.0 mi WNW 11.5 mph 26.5 mph N/A   Clear
2:56 PM 44.1 °F 37.4 °F 18.0 °F 35% 29.81 in - West 13.8 mph 21.9 mph N/A   Partly Cloudy
3:56 PM 44.1 °F 37.4 °F 18.0 °F 35% 29.80 in 10.0 mi SW 13.8 mph 27.6 mph N/A   Mostly Cloudy
4:56 PM 43.0 °F 37.2 °F 21.0 °F 42% 29.80 in 10.0 mi SW 10.4 mph - N/A   Overcast
5:56 PM 43.0 °F 37.7 °F 18.0 °F 37% 29.81 in 10.0 mi NW 9.2 mph - N/A   Overcast
6:56 PM 42.1 °F 36.1 °F 16.0 °F 35% 29.81 in 10.0 mi West 10.4 mph - N/A   Mostly Cloudy
7:56 PM 37.0 °F - 18.0 °F 46% 29.82 in 10.0 mi Calm Calm - N/A   Mostly Cloudy
8:56 PM 34.0 °F - 17.1 °F 50% 29.83 in 10.0 mi Calm Calm - N/A   Clear
9:56 PM 30.0 °F - 19.0 °F 64% 29.84 in 10.0 mi Calm Calm - N/A   Overcast
10:56 PM 30.9 °F - 21.0 °F 67% 29.84 in 10.0 mi Calm Calm - N/A   Overcast
11:56 PM 33.1 °F - 21.9 °F 64% 29.84 in 10.0 mi Calm Calm - N/A   Overcast